Location: L�Ave Maria
(50.7161°N, 1.5911°E)
Time: 13:17:59
(UTC+00:00)

Cosmos 1933 - Pass Details

Date: 10 July 2020
Orbit: 547 x 563 km, 82.5° (Epoch: 06 August)

Event Time Altitude Azimuth Distance (km) Brightness Sun altitude
Rises 23:17:17 0° 344° (NNW) 2,734 8.6 -16.6°
Reaches altitude 10° 23:19:32 10° 337° (NNW) 1,836 7.2 -16.7°
Maximum altitude 23:23:19 41° 267° (W) 810 4.2 -16.8°
Enters shadow 23:25:04 26° 215° (SW) 1,107 4.4 -16.8°
